Location: San Bernardino
(34.1083°N, 117.2898°W)
Time: 16:28:19
(UTC+00:00)

Cosmos 1766 - Pass Details

Date: 13 April 2024
Orbit: 487 x 505 km, 82.5° (Epoch: 19 May)

Event Time Altitude Azimuth Distance (km) Brightness Sun altitude
Rises 12:42:30 0° 345° (NNW) 2,566 6.8 -8.3°
Reaches altitude 10° 12:44:41 10° 338° (NNW) 1,679 5.7 -7.9°
Maximum altitude 12:48:08 40° 267° (W) 724 3.5 -7.2°
Drops below altitude 10° 12:51:34 10° 197° (SSW) 1,665 5.5 -6.5°
Sets 12:53:44 0° 189° (S) 2,541 6.5 -6.1°
